Regional Weather Roundup
Issued by NWS

Home | Current Version | Previous Version | Text Only | Print | Product List | Glossary Off
Versions: 1 2 3 4 5 6 7 8 9 10 11 12 13 14 15 16 17 18 19 20 21 22 23 24 25 26 27 28 29 30 31 32 33 34 35 36 37 38 39 40 41 42 43 44 45 46 47 48 49 50

000
ASUS43 KLMK 261810
RWRKY
KENTUCKY REGIONAL WEATHER ROUNDUP
NATIONAL WEATHER SERVICE LOUISVILLE KY
100 PM EST SUN FEB 26 2017

NOTE "FAIR" INDICATES FEW OR NO CLOUDS BELOW 12,000 FEET
WITH NO SIGNIFICANT WEATHER AND/OR OBSTRUCTIONS TO VISIBILITY.

KYZ001>023-026-027-061>063-070>075-261900-
WESTERN AND SOUTH CENTRAL KENTUCKY

CITY           SKY/WX    TMP DP  RH WIND       PRES   REMARKS
PADUCAH        PTSUNNY   49  17  28 SE12      30.18F
HENDERSON      SUNNY     46  18  31 SE9       30.19F
OWENSBORO      SUNNY     46  16  30 S9        30.21F
HOPKINSVILLE   SUNNY     48  16  28 SE13      30.19F
BOWLING GREEN  SUNNY     48  17  29 S9        30.23F
GLASGOW        SUNNY     47  16  29 S9        30.23S
$$

KYZ024-025-028>034-038-045-046-053-261900-
NORTH CENTRAL KENTUCKY

CITY           SKY/WX    TMP DP  RH WIND       PRES   REMARKS
LOUISVILLE/SDF MOSUNNY   45  12  26 SE12      30.21F
LOUISVILLE/LOU SUNNY     45  16  31 S8        30.22F
FORT KNOX      SUNNY     44  16  32 SE8       30.19F
$$

KYZ035>037-039>044-047>052-055>060-089>105-261900-
NORTHEAST KENTUCKY

CITY           SKY/WX    TMP DP  RH WIND       PRES   REMARKS
LEXINGTON      SUNNY     42  11  28 CALM      30.20F
COVINGTON      SUNNY     41  15  35 S12       30.18F
FRANKFORT      SUNNY     43  12  28 S7        30.20F
$$

KYZ054-064>069-076>088-106>120-261900-
SOUTHEAST KENTUCKY

CITY           SKY/WX    TMP DP  RH WIND       PRES   REMARKS
JACKSON        SUNNY     41  15  35 VRB3      30.20F
LONDON         SUNNY     42  16  34 E6        30.22F
SOMERSET       SUNNY     41  16  36 S5        30.24F
MIDDLESBORO    SUNNY     44  12  26 NE3       30.24S
MONTICELLO     CLEAR     45  19  35 VRB5      30.24F
$$





USA.gov is the U.S. government's official web portal to all federal, state and local government web resources and services.